This is the latest recevied weather packets stored in our database for station/object WA6OOO. If no packets are shown the sender has not sent any weather packets the latest 10 day(s).
| Time | Temp. | Humidity | Pressure | Rain* | Wind** | Luminosity | Snow |
|---|---|---|---|---|---|---|---|
| 1777823158 | 14.44° C | 80% | 1017.5 hPa | 0 mm | - | 56 W/m² | - |
| 1777822856 | 14.44° C | 80% | 1017.2 hPa | 0 mm | - | 52 W/m² | - |
| 1777822554 | 14.44° C | 80% | 1017.2 hPa | 0 mm | - | 49 W/m² | - |
| 1777822251 | 13.89° C | 80% | 1017.2 hPa | 0 mm | - | 52 W/m² | - |
| 1777821948 | 13.89° C | 80% | 1017.2 hPa | 0 mm | - | 53 W/m² | - |
| 1777821646 | 13.89° C | 80% | 1017.2 hPa | 0 mm | - | 53 W/m² | - |
| 1777821344 | 13.89° C | 80% | 1017.3 hPa | 0 mm | - | 49 W/m² | - |
| 1777821040 | 13.89° C | 80% | 1017.3 hPa | 0 mm | - | 42 W/m² | - |
| 1777820737 | 13.89° C | 79% | 1016.9 hPa | 0 mm | - | 39 W/m² | - |
| 1777820433 | 14.44° C | 79% | 1016.8 hPa | 0 mm | - | 38 W/m² | - |
| 1777820131 | 13.89° C | 79% | 1016.8 hPa | 0 mm | - | 35 W/m² | - |
| 1777819828 | 13.89° C | 78% | 1016.9 hPa | 0 mm | - | 37 W/m² | - |
| 1777819525 | 13.89° C | 78% | 1016.7 hPa | 0 mm | - | 35 W/m² | - |
| 1777819223 | 13.89° C | 78% | 1016.7 hPa | 0 mm | - | 33 W/m² | - |
| 1777818920 | 13.89° C | 80% | 1016.7 hPa | 0 mm | - | 26 W/m² | - |
| 1777818616 | 13.89° C | 80% | 1016.6 hPa | 0 mm | - | 24 W/m² | - |
| 1777818313 | 13.89° C | 81% | 1016.6 hPa | 0 mm | - | 22 W/m² | - |
| 1777818009 | 13.89° C | 82% | 1016.6 hPa | 0 mm | - | 21 W/m² | - |
| 1777817707 | 13.89° C | 83% | 1016.5 hPa | 0 mm | - | 20 W/m² | - |
| 1777817404 | 13.89° C | 84% | 1016.3 hPa | 0 mm | - | 18 W/m² | - |
| 1777817100 | 13.89° C | 86% | 1016.3 hPa | 0 mm | - | 18 W/m² | - |
| 1777816796 | 13.89° C | 87% | 1016.4 hPa | 0 mm | - | 17 W/m² | - |
| 1777816495 | 13.89° C | 88% | 1016.3 hPa | 0 mm | - | 18 W/m² | - |
| 1777816191 | 13.89° C | 89% | 1016 hPa | 0 mm | - | 12 W/m² | - |
| 1777815889 | 13.89° C | 89% | 1016.2 hPa | 0 mm | - | 11 W/m² | - |
* Rain latest hour (hover to see other rain measurements)
** Current wind speed in m/s (hover to see current wind gust speed)